RH
63 54 50 48 47 42 34 36 45 54 49 46 46 51 60 51 35 52 33 29 23 21 20 20 20 20 19 18 18 17 17 16 14 10 11 16 62 66 20 9 14 17 18 17 16 16 18 20 20
83 54 50 50 50 43 34 34 38 67 57 51 47 50 65 50 41 47 34 27 23 22 21 20 19 20 19 18 18 17 18 17 17 15 12 11 11 14 16 17 17 16 17 19 21 22 23 23 22
98 64 53 53 50 40 34 31 37 50 64 53 48 60 56 53 61 36 31 29 26 23 20 18 18 18 18 19 18 17 17 16 16 16 16 16 16 16 16 17 19 20 20 21 20 19 18 16 15
99 79 64 57 46 38 34 31 35 44 64 56 46 72 63 55 60 33 28 30 24 21 18 17 17 17 18 18 17 16 15 16 15 15 15 16 16 16 16 16 16 15 15 16 15 16 18 24 32
99 93 73 60 40 40 34 31 31 40 56 60 56 64 73 60 60 40 26 29 25 19 16 15 15 16 16 15 14 14 13 14 14 13 14 14 14 14 13 14 15 18 23 30 36 38 39 40 40
100 95 81 57 45 39 34 36 33 36 46 56 60 57 70 68 56 46 28 27 23 18 13 13 14 14 14 13 13 13 14 14 15 15 16 16 16 17 20 25 30 34 36 38 39 40 42 44 46
100 97 72 52 46 48 42 46 39 41 38 38 45 57 61 87 86 58 35 25 20 16 13 12 12 12 13 14 14 15 16 17 18 19 23 26 31 34 37 40 42 46 47 48 49 50 50 50 49
100 96 71 63 48 49 38 40 44 39 36 43 44 45 45 54 82 78 53 31 20 16 16 15 15 15 16 17 19 21 24 26 28 29 34 39 42 44 45 46 47 48 49 50 51 51 51 50 50
98 99 81 67 47 49 48 35 38 44 37 39 62 65 54 60 81 79 65 29 21 20 23 24 26 26 26 28 30 33 36 38 39 40 40 42 44 44 46 47 47 47 48 48 49 50 50 50 49
98 98 77 71 51 54 52 39 39 40 45 41 47 68 62 66 62 90 70 38 26 27 30 30 32 32 33 36 38 40 41 42 42 43 43 43 44 45 45 46 46 46 46 47 47 47 48 48 48
98 100 81 73 63 53 59 53 42 40 43 41 37 50 73 72 64 66 72 81 49 30 33 35 35 36 37 39 40 41 42 42 42 42 44 45 45 45 45 45 45 44 44 44 44 45 46 47 47
99 100 86 76 72 61 62 58 51 46 43 41 40 60 52 60 57 58 65 64 41 35 35 37 37 38 39 40 40 41 42 41 42 42 43 44 45 45 45 45 44 42 41 42 42 42 44 43 44
99 100 97 94 75 70 72 61 58 51 45 43 46 40 62 57 57 59 66 66 47 40 37 38 38 39 39 40 40 41 41 42 42 42 43 44 44 44 45 44 43 41 41 34 32 33 33 30 26
100 99 100 97 89 84 80 65 62 56 51 46 41 41 41 58 60 55 60 56 52 46 41 51 54 39 39 40 40 41 41 41 42 42 42 43 43 44 44 44 43 42 41 27 27 27 28 29 31
98 99 100 99 99 96 86 73 65 60 56 54 53 41 35 39 48 54 50 42 43 50 52 51 44 39 39 39 39 40 40 41 41 41 41 42 43 43 43 43 43 40 40 27 28 30 32 33 31
70 89 99 100 98 100 98 87 79 77 78 72 64 50 44 37 45 44 62 53 47 52 52 51 43 40 41 42 40 40 40 40 40 40 41 41 42 42 42 42 42 39 38 29 30 31 34 35 32
96 92 99 98 94 99 99 100 85 85 83 83 68 55 49 49 50 46 43 60 54 58 57 54 51 39 35 37 50 48 42 45 45 44 42 44 44 43 42 43 42 40 37 32 34 34 34 35 34
91 83 72 86 88 99 98 98 92 89 94 87 79 60 52 48 51 60 57 51 48 55 61 60 63 63 47 43 47 52 46 36 34 34 37 38 42 44 44 44 43 40 35 37 40 40 39 37 34
73 70 78 82 92 85 84 96 98 98 85 72 82 75 62 56 49 50 57 60 54 55 62 48 48 54 59 60 58 57 57 60 58 54 50 49 47 44 44 46 44 46 37 44 48 46 38 34 30
83 69 60 63 58 58 55 71 76 89 68 58 67 55 48 43 45 45 46 51 59 59 54 49 52 57 61 60 58 60 63 67 64 60 57 56 59 62 54 49 54 54 55 58 65 64 39 30 29
78 79 66 52 48 80 74 81 83 83 80 77 69 63 54 44 46 43 44 47 50 57 60 59 57 57 52 56 61 62 62 60 55 57 57 68 85 89 93 90 87 78 77 75 69 48 38 33 30
78 73 70 69 72 91 79 84 52 71 76 69 65 63 59 64 47 45 39 38 42 45 49 52 54 55 53 52 58 60 66 67 69 70 74 81 92 94 91 87 86 91 86 92 97 71 39 35 31
81 82 71 69 72 79 88 88 58 46 45 41 56 57 63 47 47 43 39 36 36 36 39 42 45 46 51 52 52 60 68 72 77 73 74 79 87 90 92 94 92 89 94 92 85 70 47 36 35
82 81 90 93 90 93 74 82 59 37 31 32 40 28 29 41 46 38 42 42 39 35 36 44 45 43 45 44 47 54 62 68 78 84 79 80 90 94 94 96 92 90 92 82 95 52 41 41 38
92 97 99 99 98 92 72 78 56 34 36 38 45 37 36 37 34 37 42 57 60 50 41 46 44 38 38 41 47 56 70 69 77 84 92 89 86 92 96 98 97 68 53 50 47 46 45 46 42
85 77 90 83 92 77 60 73 42 31 28 43 43 43 46 47 44 54 58 49 54 62 62 58 58 60 57 54 51 54 58 63 71 86 92 99 98 95 97 97 77 60 56 51 57 55 52 49 46
84 83 83 80 89 77 55 46 41 32 24 32 44 44 47 49 50 53 58 59 60 62 48 44 58 58 57 57 66 70 65 68 73 77 91 100 97 94 100 82 98 69 59 62 64 61 69 51 46
82 76 94 95 97 85 59 57 44 36 29 34 41 40 41 44 46 47 45 48 60 69 58 53 61 65 62 68 73 79 78 85 90 89 90 74 76 82 88 77 64 62 68 73 72 62 48 42 41
91 87 82 79 77 82 61 48 43 39 35 37 37 37 38 32 30 33 41 34 49 60 62 62 62 69 78 88 83 82 89 91 88 70 68 78 84 81 82 78 81 83 81 75 73 53 47 41 38
86 78 81 77 84 69 61 50 42 36 34 38 39 37 40 38 36 41 38 33 36 53 58 56 46 56 72 95 81 77 69 76 83 85 76 87 98 98 99 99 98 98 94 85 87 69 47 39 34
Wind_Speed
34 35 34 32 22 16 27 25 32 19 21 17 15 16 25 19 29 9 18 17 17 14 14 13 12 11 10 10 11 11 12 13 15 14 14 15 15 12 11 11 12 12 12 11 12 13 14 14 15
34 37 36 31 25 24 30 19 25 36 13 14 15 22 24 24 24 14 23 20 18 14 12 12 12 12 12 12 13 13 14 15 16 16 15 16 15 14 13 13 12 12 13 13 12 13 13 13 14
36 38 38 34 26 41 35 28 22 25 22 15 15 15 25 24 11 23 22 21 19 17 14 13 13 13 13 14 15 15 16 16 16 16 16 16 15 14 14 14 13 12 12 12 12 13 14 15 16
39 39 36 28 37 41 31 33 19 17 30 11 15 16 26 38 14 27 25 21 19 17 16 14 14 15 16 16 17 17 17 17 16 16 16 16 15 14 13 13 13 13 14 15 16 17 18 19 19
45 39 32 32 43 35 27 35 25 19 26 23 20 14 22 35 24 24 27 23 20 18 17 17 17 18 18 19 19 18 18 18 17 15 16 16 16 16 16 17 18 18 19 19 19 18 17 16 16
42 41 33 38 46 36 25 18 30 24 22 31 27 18 18 32 27 26 27 25 21 18 19 19 20 20 20 20 20 19 19 19 18 17 17 18 18 18 19 19 19 18 17 17 17 16 15 14 14
32 38 42 41 39 32 29 22 26 27 27 28 34 37 25 17 23 24 26 28 26 23 21 22 22 22 21 21 21 21 20 20 20 20 20 20 20 19 19 18 17 16 15 15 14 13 13 12 12
35 35 39 27 33 26 36 31 18 22 28 25 24 29 30 35 23 32 23 28 28 26 24 23 23 22 21 21 21 21 21 21 20 20 20 19 18 17 15 14 13 12 10 10 10 10 10 10 10
40 28 34 25 32 26 30 50 32 20 24 25 23 20 18 23 24 36 32 31 32 30 26 26 23 23 22 21 20 20 20 20 19 17 17 16 14 13 11 10 8 7 7 6 6 6 7 8 9
37 31 38 26 32 27 27 36 45 32 23 24 24 19 22 22 22 28 40 35 35 33 30 28 25 23 23 22 21 20 18 17 15 14 13 11 10 9 7 5 4 4 4 4 5 6 6 7 8
41 24 33 28 32 34 21 21 33 38 29 24 21 23 20 22 20 25 18 30 33 34 32 30 28 25 24 23 21 20 18 15 13 11 10 7 5 3 2 1 2 3 4 5 5 6 6 6 8
26 24 27 29 25 33 25 23 24 28 31 29 24 21 25 24 22 24 23 30 35 34 33 31 30 27 26 25 22 20 17 14 12 9 8 7 5 4 3 3 5 5 6 7 7 6 6 8 9
25 15 21 28 34 32 28 29 25 26 28 25 25 29 22 24 24 28 25 22 29 29 31 30 29 28 26 25 23 21 19 17 15 11 10 9 8 7 8 7 9 9 8 8 7 8 8 8 8
16 19 25 28 31 30 25 30 30 27 26 23 26 26 28 24 25 28 29 29 25 26 30 30 26 30 27 26 24 22 20 19 17 15 14 14 13 12 12 12 12 12 10 9 8 8 8 8 9
31 4 14 26 30 29 32 27 27 28 24 20 18 23 27 29 22 22 28 30 32 32 32 26 33 31 30 28 26 25 23 22 22 21 19 17 17 17 16 15 15 15 13 11 10 10 10 10 11
29 26 17 16 15 16 31 29 26 25 23 18 20 20 24 30 26 22 24 31 30 28 28 29 30 31 30 28 28 27 26 25 26 26 25 24 23 22 20 20 18 17 16 14 13 12 12 13 14
13 18 15 12 12 9 28 25 29 28 23 14 18 19 20 21 25 27 26 28 29 27 30 29 30 31 32 32 25 25 29 30 30 30 29 28 27 26 25 24 22 20 19 16 15 15 15 16 17
15 18 20 20 12 19 16 19 29 31 25 18 15 18 20 20 19 19 21 26 26 28 28 27 25 26 28 30 27 37 37 32 32 32 33 31 30 30 29 27 24 23 21 18 17 17 18 19 20
7 12 16 13 11 7 18 18 28 24 17 19 22 23 23 24 22 22 21 22 25 27 27 26 25 24 24 26 27 30 30 28 30 30 30 30 31 30 29 29 27 25 21 19 18 18 20 21 22
12 16 17 16 7 11 9 17 11 27 30 27 24 25 26 27 26 25 25 24 23 26 27 28 26 25 25 26 26 26 27 28 29 30 29 30 30 26 25 27 23 19 18 19 19 20 22 24 25
9 12 13 12 12 13 13 17 22 25 29 26 34 29 28 29 30 31 28 27 25 24 23 23 24 25 27 25 27 28 28 29 29 29 29 27 24 24 22 25 27 30 30 30 28 20 22 25 26
8 11 13 15 17 15 12 5 14 18 35 32 35 34 33 32 33 33 35 34 31 29 26 25 24 24 25 26 27 27 27 30 27 27 26 27 28 28 27 29 28 30 35 36 36 23 26 28 29
8 7 10 14 17 13 19 8 13 17 28 31 38 37 36 35 33 31 33 36 35 34 32 31 30 29 27 27 28 29 29 29 28 29 29 29 29 29 31 29 29 28 27 33 26 28 28 30 31
8 11 10 16 18 5 18 22 8 18 22 19 19 29 32 34 33 31 31 33 35 36 37 35 32 32 32 32 32 31 32 30 32 33 33 31 31 31 32 29 24 26 24 29 29 28 29 29 32
14 19 5 3 5 4 23 18 25 9 15 22 17 19 21 23 26 26 27 36 39 38 36 36 35 33 32 32 35 37 34 33 33 33 33 33 32 29 29 27 24 25 26 26 26 28 28 32 36
20 22 4 5 3 4 10 12 17 15 16 19 15 19 19 18 21 23 24 27 39 40 39 39 36 34 35 33 32 32 33 35 36 35 36 36 31 34 33 25 24 27 28 31 27 27 30 36 40
22 23 16 1 1 1 6 15 20 14 15 19 20 17 18 21 21 22 24 22 18 20 28 34 38 38 37 36 35 33 33 34 35 37 38 37 39 48 36 33 33 31 31 33 32 32 31 41 40
21 21 12 10 5 4 5 9 13 19 22 21 19 20 19 19 19 20 21 22 22 23 22 21 25 30 33 34 30 27 29 34 35 35 37 29 27 25 24 27 33 31 32 35 36 33 39 38 38
28 23 18 11 9 4 1 7 15 20 14 19 21 17 17 19 26 27 27 20 25 27 25 24 23 25 25 25 24 26 30 34 36 31 27 26 27 28 32 35 37 39 34 29 32 38 38 38 37
27 33 30 16 8 12 2 4 6 13 13 15 17 13 11 11 13 17 20 20 20 24 25 25 25 25 24 27 31 28 28 31 32 37 44 40 32 36 39 40 43 41 38 34 37 41 40 38 37
Wind_Direction
192 186 189 187 185 206 208 201 210 199 215 225 222 225 203 198 175 178 164 167 159 169 164 170 168 165 159 149 143 141 136 129 126 130 133 134 139 139 127 119 111 104 97 92 87 86 87 84 80
187 182 186 186 196 204 205 190 187 214 206 212 194 205 195 170 176 167 169 160 158 165 165 166 165 163 158 149 142 138 133 129 127 128 129 127 128 124 119 114 107 102 99 96 94 91 87 81 75
184 183 184 187 196 207 204 191 179 191 173 156 186 180 197 189 179 170 167 162 159 164 164 163 165 160 154 146 140 137 133 128 125 126 126 124 123 121 119 115 110 106 102 100 94 86 79 75 75
181 182 186 190 199 202 203 196 171 180 192 179 199 167 174 176 175 171 162 163 159 163 162 162 162 158 151 145 140 135 132 126 123 124 123 122 120 117 112 108 105 101 96 93 88 84 82 79 77
175 182 183 194 201 201 193 202 194 184 193 196 205 174 169 185 178 176 163 164 161 162 163 162 159 154 150 145 139 135 130 126 123 122 120 118 116 113 109 106 102 97 93 88 83 78 75 72 68
178 182 183 193 203 201 182 193 199 197 177 190 207 204 183 174 177 172 169 164 161 165 161 160 157 152 148 143 138 134 130 127 123 122 118 115 111 107 102 96 92 88 85 81 76 70 63 59 55
187 176 186 194 200 194 182 170 183 189 192 197 195 211 214 192 185 177 173 166 164 167 164 159 155 151 147 143 138 133 130 126 123 120 115 111 105 99 95 91 85 77 70 65 59 56 49 42 38
182 179 187 195 188 182 191 186 173 183 191 187 191 198 220 231 193 192 170 173 169 166 164 159 155 150 147 143 137 132 128 123 119 115 113 109 107 102 95 88 82 74 64 57 48 37 31 22 18
175 181 187 184 183 184 191 200 206 197 192 188 179 187 196 209 192 172 172 179 174 170 167 162 159 153 149 145 139 136 132 129 125 120 116 116 111 104 99 91 84 70 55 39 33 21 9 1 356
168 176 183 183 174 173 173 196 213 208 198 189 183 181 188 203 204 199 178 188 177 174 171 169 167 161 156 154 150 146 143 140 136 133 126 122 117 114 105 91 69 47 23 5 356 348 344 336 333
188 171 175 170 174 179 175 183 202 210 205 205 194 193 185 191 197 203 209 187 185 179 177 175 176 173 168 165 162 161 159 159 157 151 146 148 141 137 115 78 348 340 330 323 321 317 315 315 315
175 179 170 179 168 179 185 186 192 199 209 211 205 194 201 203 200 199 206 200 191 187 184 184 183 185 181 177 176 176 178 180 180 178 176 187 207 225 258 286 297 307 312 308 307 301 301 303 305
185 170 170 173 169 166 182 197 195 196 204 210 202 200 200 199 199 204 199 217 204 207 194 193 195 194 195 191 192 193 196 198 201 206 209 217 234 253 267 279 287 294 296 301 303 303 300 300 303
150 173 152 170 180 174 174 187 194 198 204 205 209 207 206 206 198 206 209 209 232 212 204 216 212 211 208 205 209 210 213 220 222 221 225 232 243 255 264 276 285 287 283 289 293 288 287 293 303
220 204 145 165 172 182 183 183 186 185 193 201 202 207 208 215 204 204 212 211 211 216 217 219 218 219 217 216 221 226 227 233 240 243 243 245 251 256 264 273 279 279 270 272 275 279 285 295 302
223 232 204 196 175 168 179 179 181 176 174 187 197 196 204 212 210 197 204 214 218 219 222 222 222 220 225 226 226 230 236 239 246 247 249 252 254 259 265 270 272 271 263 266 274 280 284 292 301
179 222 221 227 222 200 187 184 174 178 166 178 206 199 196 199 207 211 204 209 211 217 227 228 224 225 229 228 234 252 250 248 250 251 252 256 258 260 262 265 265 261 257 262 274 282 288 294 299
177 207 224 231 234 236 193 196 198 208 189 183 213 221 215 207 202 206 211 218 217 211 216 225 234 231 230 230 237 240 252 252 253 257 259 258 258 258 260 260 257 251 248 256 270 281 288 293 295
192 193 175 183 220 240 238 227 226 203 210 203 225 234 232 223 217 212 210 215 220 224 221 229 226 230 235 239 238 243 250 253 256 258 261 263 262 261 257 252 244 241 245 256 267 277 286 291 294
168 195 219 224 240 263 267 255 247 237 232 223 223 229 233 235 232 226 223 221 218 221 229 231 229 232 238 242 247 251 256 257 257 260 262 263 261 260 252 247 240 241 248 259 271 281 289 293 296
183 208 217 215 206 225 250 241 225 228 215 203 223 220 228 236 237 237 235 230 228 229 229 235 239 240 239 242 247 251 253 255 260 262 261 255 249 248 240 239 242 260 248 260 260 275 290 293 295
198 205 204 203 185 204 219 269 240 210 216 226 220 218 222 228 231 235 240 239 238 233 234 236 240 245 249 249 250 254 262 262 265 262 255 247 246 240 236 265 257 257 278 266 273 259 294 291 292
203 162 201 212 210 199 204 239 263 225 225 218 224 228 226 236 238 236 237 242 245 246 242 240 240 242 248 253 256 256 256 258 257 260 254 247 242 240 248 252 260 268 265 277 279 274 285 288 291
194 181 191 181 190 216 201 203 246 223 235 227 237 237 233 237 240 240 236 232 236 241 241 242 243 245 248 254 257 258 257 257 257 255 254 249 249 251 257 255 263 266 274 286 263 278 284 289 293
195 175 144 196 195 218 200 204 236 226 231 229 232 230 219 221 227 233 233 232 233 235 240 245 245 245 246 248 252 254 255 255 253 252 249 249 249 249 249 251 255 269 273 274 274 276 282 288 291
197 225 165 177 205 196 184 216 238 233 229 214 222 223 216 221 223 225 232 236 238 238 239 243 246 248 249 250 254 260 258 258 258 254 250 245 242 246 244 255 258 264 267 265 274 282 285 287 287
211 218 223 160 182 297 209 239 249 245 245 228 228 231 223 219 228 230 236 229 227 238 243 246 241 248 253 256 256 256 259 259 255 257 253 250 257 259 248 253 262 257 258 262 267 274 285 283 284
216 215 195 204 185 217 249 241 234 222 225 229 227 230 236 236 239 242 242 240 242 242 249 245 243 246 251 256 260 260 256 251 249 249 252 247 257 261 257 251 252 258 264 270 277 284 284 284 282
214 211 209 209 218 189 215 245 225 217 229 224 233 242 251 252 249 251 246 251 245 246 251 248 253 250 254 255 259 258 253 250 243 237 237 241 244 246 251 251 255 262 264 269 281 284 288 286 283
228 225 216 205 201 209 219 255 212 226 233 214 219 231 233 244 239 231 228 240 245 249 250 253 256 248 247 242 245 248 247 249 250 252 256 236 243 253 256 261 265 267 269 272 271 283 288 284 282